Qianfan 05-09

operational
NORAD ID: 63167 Int'l Des: 2025-046 Owner: YUANX Country: CN Constellation: qianfan
LEOCIRCULARPOLAR

Über Qianfan 05-09

Beschreibung wird geladen...

Live-Position

3D-Globus wird geladen...

Nächste Überflüge

Höhenverlauf

Altitude vs Time

uPlot chart will show altitude changes over time

Zweizeiliger Elementsatz

1 63167U 25046J 25304.79123781 .00000129 00000-0 18192-3 0 9998
2 63167 88.9768 324.2178 0013036 237.8734 122.1153 13.50991077 41827
Epoch: 31. Okt. 2025 • Age: 15 hours

Aktueller Status

Höhe 1074.3 km
Geschwindigkeit 7.32 km/s
Subsatellitenpunkt 37.07°N, 46.31°W
Startdatum 11. März 2025
Alter 0.6 years
Typ internet

Technische Details

Klassifizierung Payload
Masse 267.00 kg
Trockenmasse 267.00 kg
Gesamtmasse 267.00 kg
Länge 0.30 m
Durchmesser 3.00 m
Spannweite 10.00 m
Form Box+pan
Hersteller GESIH
Bus-Typ Qianfan
Phasenstatus In Orbit
Besitzer/Staat YUANX/CN

Große Konstellationen

Loading constellations...